User: anonymous   Login
Location: Pensacola
(30.4142°N, 87.2155°W)
Time: 18:03:54
(UTC-05:00)
Language:

AO-27 - Orbit

View from above orbital plane
View from above orbital plane
View from above satellite
View from above satellite

Ground track
Ground track

The orbit data is extracted from the following two-line orbital elements,

1 22825U 93061C   24176.60214195  .00000165  00000-0  80600-4 0  9996
2 22825  98.7880 229.4548 0009368  61.6466 298.5660 14.30509877603672
Epoch (UTC): 24 June 2024 14:27:05
Eccentricity: 0.0009368
inclination: 98.7880°
perigee height: 783 km
apogee height: 797 km
right ascension of ascending node: 229.4548°
argument of perigee: 61.6466°
revolutions per day: 14.30509877
mean anomaly at epoch: 298.5660°
orbit number at epoch: 60367

The dashed part of the orbit path shows where the satellite is in the earth's shadow,  

DLR